Theta_e
301 300 302 304 303 302 303 305 305 305 304 301 300 299 299 299 300 301 302 302 302 302 300 298 297 297 296 296 296 295 294 294 294 294 294 294 293 293 294 294 294 295 296
293 296 298 299 301 302 303 304 305 305 305 306 301 301 300 300 301 302 302 302 302 302 301 299 299 298 297 296 295 295 294 294 294 293 290 290 292 293 295 293 294 293 294
296 294 295 297 300 300 301 304 305 305 306 304 301 299 299 298 298 299 299 301 302 302 301 300 299 298 297 297 296 295 294 294 294 294 294 290 288 289 294 294 293 294 295
295 296 296 297 298 301 301 304 304 304 305 303 303 301 303 300 299 299 300 300 301 300 301 301 299 298 298 297 297 297 296 294 294 294 296 293 292 290 290 294 294 295 295
296 296 296 299 301 301 299 302 303 304 304 304 304 303 300 300 299 298 299 299 300 301 301 301 300 299 298 297 297 297 296 295 295 294 293 293 292 290 290 291 291 293 295
294 296 296 299 300 299 299 299 301 302 302 303 301 302 300 299 298 297 298 298 300 301 303 303 302 300 299 298 298 297 297 296 295 295 295 295 293 291 290 288 289 293 296
294 295 295 297 298 298 299 300 300 301 301 301 301 301 301 299 299 299 298 298 299 300 302 303 303 302 301 300 299 298 297 296 295 295 296 296 297 296 293 292 294 292 296
294 295 296 298 299 300 300 301 300 300 300 301 301 301 301 301 301 299 299 299 300 301 303 304 304 304 303 302 300 298 298 297 296 295 294 295 296 296 297 295 292 293 293
294 295 296 297 298 299 300 301 301 301 301 301 301 300 300 300 301 299 299 300 301 304 304 304 304 303 303 302 301 299 298 298 297 297 296 295 296 296 296 296 295 293 288
294 295 296 297 298 300 301 301 302 302 302 302 302 302 301 301 301 300 300 301 302 303 304 304 303 302 301 301 300 299 299 298 298 298 297 296 296 296 295 295 295 294 294
294 295 296 297 298 299 300 301 301 302 301 302 302 302 301 301 301 301 302 302 303 303 303 303 302 302 301 301 299 299 299 298 298 297 297 297 297 296 295 295 295 294 293
295 295 296 296 297 298 299 301 302 302 303 303 303 302 302 301 301 302 303 303 303 304 303 303 302 302 302 301 300 300 300 298 298 298 297 297 299 296 295 294 294 293 294
296 296 297 297 298 298 300 301 302 303 304 302 302 301 302 302 302 303 303 303 303 303 302 302 302 302 302 301 300 300 299 298 298 297 296 297 296 295 294 294 294 294 296
296 296 296 297 298 299 300 302 303 303 303 303 302 303 303 303 303 303 302 303 303 302 302 302 302 302 301 300 300 299 298 297 297 297 297 297 296 295 295 295 294 295 293
296 297 298 297 297 298 300 301 303 303 303 303 303 304 304 303 302 302 302 302 302 302 302 301 300 300 300 300 299 298 298 297 296 297 297 297 299 305 305 302 298 296 294
297 297 299 299 299 299 301 302 303 303 303 303 304 304 302 302 303 303 302 301 302 302 301 301 301 300 300 306 308 301 297 297 297 297 297 297 301 301 306 308 309 306 297
296 297 298 300 302 302 302 302 304 303 303 303 304 304 303 303 303 303 302 302 302 301 301 301 300 300 300 308 310 311 301 299 298 297 296 297 299 300 298 302 305 303 305
297 298 298 299 301 303 301 303 302 302 303 303 304 304 303 304 303 302 303 303 302 302 301 300 300 300 301 309 311 312 301 298 297 296 296 295 296 297 301 298 296 295 295
300 300 299 299 300 301 302 302 300 301 302 303 303 304 304 303 302 302 303 303 302 300 300 300 300 300 300 309 311 307 298 297 296 296 297 296 296 303 306 297 295 294 294
299 298 297 298 298 299 301 300 300 301 301 303 304 305 304 304 303 304 303 302 304 303 302 301 301 303 300 306 310 305 298 296 294 295 295 301 300 305 305 297 294 292 292
298 298 297 298 299 299 298 299 300 299 303 305 304 303 303 304 304 304 303 303 303 302 301 301 300 299 300 300 308 307 297 296 294 294 294 295 301 302 302 301 293 293 294
300 301 300 300 300 299 298 299 299 302 302 301 301 302 302 303 302 302 302 302 302 302 300 299 298 298 298 304 307 309 304 300 295 294 295 294 299 300 300 299 301 299 292
300 300 299 299 299 299 299 299 300 301 301 300 300 300 301 301 301 301 300 300 301 302 300 299 298 297 297 297 306 310 308 304 296 295 296 298 298 298 296 298 296 292 286
300 299 299 298 298 299 299 299 300 300 300 299 299 299 299 299 299 302 302 302 301 301 300 299 298 295 295 296 297 302 303 304 298 298 293 294 295 296 292 290 288 286 285
300 298 298 299 299 299 299 299 300 300 299 299 299 298 298 300 298 300 301 302 303 304 301 301 299 296 294 296 299 298 294 292 293 291 289 287 287 286 285 285 284 284 283
300 299 299 298 299 299 299 299 300 299 299 298 298 298 298 298 298 298 296 302 302 303 302 302 299 296 300 302 302 302 299 298 298 289 286 285 285 284 284 283 283 283 285
Wind_Speed
13 9 11 12 9 8 10 12 12 10 8 3 4 2 4 3 4 5 7 7 6 6 6 5 5 4 4 4 3 1 2 3 2 4 5 4 3 3 2 3 3 4 4
8 8 9 10 13 14 14 12 14 12 11 7 4 4 4 4 3 3 5 7 7 7 6 6 6 5 4 5 4 3 1 2 1 1 1 6 6 5 4 3 3 3 2
15 11 10 12 12 12 14 14 15 14 12 9 4 3 2 1 1 3 3 5 7 7 7 7 5 6 4 5 5 4 5 2 2 3 2 3 3 4 4 5 4 4 4
9 9 10 10 11 15 12 13 13 13 12 11 8 8 7 6 4 4 4 4 6 7 7 7 6 6 4 6 5 5 5 4 4 1 4 2 2 2 6 3 4 4 4
14 14 12 14 12 11 13 12 12 12 11 13 11 9 7 5 3 3 5 5 5 6 6 6 6 6 5 5 6 5 6 4 3 4 2 3 2 2 4 8 5 3 5
11 10 9 8 9 8 9 10 12 11 11 12 11 13 11 8 5 5 5 5 4 4 6 6 6 6 6 6 6 6 7 6 5 4 4 5 4 4 4 4 5 9 5
10 10 10 10 9 11 12 11 12 12 11 12 12 13 13 10 10 8 6 5 4 3 6 5 6 5 6 6 5 6 6 6 4 6 6 4 6 4 3 3 6 5 6
8 10 11 11 12 13 12 13 13 11 11 12 13 11 11 8 8 7 5 5 5 5 4 6 6 6 6 5 5 4 4 5 5 7 6 4 5 4 5 5 4 6 4
10 10 9 9 9 11 14 15 13 12 12 14 11 10 10 10 10 8 6 5 5 4 6 7 6 6 6 6 5 4 5 5 5 6 6 5 4 5 6 5 4 5 4
7 7 8 9 8 9 10 10 12 16 14 13 12 11 11 10 9 6 8 8 6 6 6 6 6 5 5 5 5 4 4 5 4 4 6 5 4 5 4 5 4 4 5
7 7 8 8 8 7 9 11 11 11 10 11 11 10 10 9 7 8 8 8 6 7 7 7 6 6 6 5 5 5 5 6 5 4 6 6 5 4 4 4 4 5 5
4 5 6 5 7 8 8 10 10 11 13 11 10 11 8 8 9 10 9 7 8 7 7 7 6 6 5 5 6 6 5 6 6 6 5 6 3 5 4 4 6 5 6
6 6 6 8 8 8 8 10 10 13 10 8 9 8 9 9 11 10 9 8 8 7 7 7 7 7 6 6 6 6 5 6 6 6 5 6 4 5 3 4 4 4 4
9 7 7 9 8 8 9 10 11 10 9 9 10 11 12 12 11 9 8 9 8 8 8 7 7 7 6 6 6 6 5 6 6 5 5 5 5 6 5 4 5 4 3
9 9 9 9 8 8 8 8 10 9 10 11 11 15 11 10 9 9 9 8 8 8 7 7 7 6 6 5 7 6 6 6 5 5 4 4 6 10 8 3 4 4 3
11 11 9 9 10 11 11 11 12 12 11 12 15 12 9 10 12 10 9 8 8 8 7 8 7 7 5 9 10 7 6 6 5 5 4 4 6 6 8 9 10 6 3
11 12 12 11 13 13 15 13 15 9 13 14 14 12 11 12 12 11 9 11 11 7 8 8 7 8 7 10 10 11 6 5 5 5 4 4 3 5 4 7 7 5 6
15 14 11 8 10 10 8 13 8 11 13 14 14 13 13 14 11 11 13 11 9 12 8 8 8 7 6 11 11 10 6 5 5 5 4 3 4 5 4 3 4 4 4
15 13 11 9 8 8 10 9 8 11 11 13 14 14 15 14 12 14 15 11 10 8 9 6 8 8 7 12 12 9 6 5 5 4 4 3 4 5 4 2 5 6 5
10 9 9 7 7 9 6 7 8 10 13 14 17 16 13 15 14 16 14 9 11 12 9 7 8 10 8 11 13 10 5 5 3 4 3 3 3 6 6 3 4 5 5
9 7 5 7 7 6 3 7 8 10 15 14 12 8 11 15 16 14 10 12 12 9 10 9 7 8 8 8 13 16 6 5 4 4 3 2 4 5 9 9 3 5 2
7 6 5 7 6 4 4 7 9 12 7 8 8 9 12 12 9 12 10 9 12 12 11 9 6 5 6 11 12 16 12 10 5 4 3 2 4 8 8 6 5 4 5
7 5 5 8 6 5 5 7 8 6 7 7 9 9 8 9 8 11 10 7 10 10 10 9 8 6 5 5 13 15 16 13 5 4 4 3 5 6 2 2 4 5 2
9 4 5 7 8 5 5 7 7 5 5 7 7 6 7 7 7 7 8 9 10 9 9 9 8 5 5 5 5 5 7 9 6 6 3 3 4 3 1 2 3 1 2
9 4 8 8 9 5 7 6 6 4 5 6 5 5 5 7 6 6 8 9 11 13 14 11 9 9 7 8 11 11 7 5 6 6 2 1 1 1 1 2 1 1 0
12 10 7 7 9 7 8 6 5 5 5 5 4 4 4 5 5 6 4 9 7 11 10 13 10 3 8 16 17 17 15 14 13 3 3 2 4 4 3 3 2 2 5
Wind_Direction
231 215 206 203 196 191 190 193 186 192 159 149 157 191 214 216 229 218 224 223 224 225 217 228 237 216 218 233 224 228 245 303 324 328 319 308 307 317 305 291 303 304 292
221 219 203 189 192 198 196 192 198 185 188 188 163 164 170 218 205 207 224 223 223 224 220 221 230 221 223 237 234 199 292 264 278 308 114 346 334 346 330 344 358 327 306
221 213 205 199 195 193 191 193 194 189 190 178 122 101 70 12 260 226 242 227 219 224 219 224 222 227 204 226 214 199 192 225 297 222 159 345 286 321 325 336 333 356 343
216 214 198 201 193 203 189 192 188 186 188 171 177 178 196 207 216 197 206 231 219 229 223 225 219 221 207 221 214 193 198 158 227 310 230 249 171 314 325 321 289 324 305
208 213 199 203 201 183 183 186 183 187 184 183 190 193 208 211 190 207 231 241 242 231 235 226 221 223 211 222 210 195 196 191 183 182 167 223 243 246 238 295 298 275 250
209 215 201 185 191 174 173 175 179 191 182 184 187 193 202 205 208 224 233 237 238 242 234 234 226 226 223 219 216 210 204 206 206 198 196 185 184 198 204 248 294 293 298
198 198 189 188 179 181 180 179 184 196 186 189 192 201 209 201 211 216 213 217 238 236 246 230 230 225 224 221 208 204 208 203 194 196 213 203 218 192 193 193 267 272 307
204 199 196 193 190 189 185 184 186 196 187 195 203 203 208 211 217 211 204 223 219 225 224 236 236 235 231 225 212 212 221 202 214 221 208 203 218 192 201 206 187 289 268
195 204 193 193 189 183 190 188 187 198 191 199 201 203 204 206 215 211 205 217 220 228 234 234 234 229 222 213 201 213 227 210 215 225 224 213 220 205 213 210 187 186 295
216 199 199 197 196 194 190 185 194 199 198 197 200 206 206 209 212 189 216 216 223 222 230 231 226 227 224 210 195 212 224 217 230 223 232 234 224 222 211 208 204 197 225
255 223 209 206 196 184 180 192 195 197 196 195 200 203 204 202 195 208 217 216 212 216 221 219 217 213 213 207 205 218 220 225 247 236 233 251 236 237 224 208 206 208 198
246 260 258 216 191 199 190 196 199 202 208 201 195 205 199 189 200 214 216 199 218 213 216 214 217 218 215 202 212 224 215 223 239 249 237 256 243 252 233 217 227 219 206
290 240 226 219 212 209 203 203 201 210 205 180 186 194 203 199 212 215 210 198 209 214 214 208 215 218 218 213 219 223 228 231 237 245 243 262 261 273 239 233 247 240 244
300 278 251 229 221 212 206 207 214 205 191 186 193 204 207 208 212 210 202 199 201 201 208 208 212 211 207 209 217 212 226 234 236 240 238 251 247 254 264 238 246 260 258
289 263 252 244 240 226 211 206 215 200 189 197 201 216 211 203 198 201 203 203 195 204 201 196 210 207 200 199 203 202 219 226 236 240 243 248 252 262 265 247 262 240 241
260 263 243 241 232 221 217 221 217 206 184 202 215 215 199 196 204 205 199 193 199 197 192 201 200 201 208 199 197 183 208 220 224 245 256 261 282 291 299 300 294 270 238
256 258 242 229 233 223 215 212 215 191 193 202 212 208 203 206 205 201 187 199 198 180 195 199 197 209 207 201 203 196 198 206 216 221 240 281 284 319 301 302 316 326 331
254 254 254 244 240 234 219 221 189 187 197 208 212 208 199 209 199 190 203 199 185 190 188 196 200 198 208 196 200 203 182 192 216 225 224 219 285 284 283 325 329 325 319
262 255 247 238 252 226 225 210 193 196 198 210 215 211 204 202 191 199 205 199 179 178 187 178 187 193 209 198 197 173 169 196 219 228 219 210 244 252 325 332 314 311 297
265 265 251 250 245 250 230 204 218 204 208 214 217 216 201 201 198 205 197 185 192 197 175 181 188 195 198 199 197 170 163 188 196 223 224 245 219 264 310 309 272 280 281
293 292 257 246 255 276 218 215 218 217 222 223 224 202 193 203 206 202 186 187 186 170 173 177 181 189 190 198 197 176 170 170 188 201 201 221 273 303 298 291 244 242 208
294 287 293 283 283 265 195 238 230 240 229 216 205 203 203 206 198 186 188 183 179 179 173 168 176 196 194 197 198 187 180 178 171 192 195 210 283 290 294 293 256 110 89
283 277 269 291 292 268 221 255 255 231 231 214 215 208 198 196 180 182 177 166 178 180 178 178 182 188 185 195 198 194 187 179 160 165 179 204 276 288 251 167 99 65 64
293 270 266 274 276 282 259 239 274 260 233 231 230 210 196 192 181 184 178 180 180 182 177 178 186 171 167 180 185 176 168 167 148 162 154 209 263 207 182 63 46 138 168
297 253 277 282 285 277 267 267 266 234 244 249 242 213 195 188 184 189 186 191 199 189 180 188 174 163 183 199 177 162 157 157 175 137 117 184 227 262 256 234 237 273 183
307 303 267 248 274 271 281 273 225 202 218 237 231 212 192 184 174 164 109 42 144 133 119 140 149 153 154 160 171 171 166 165 161 119 169 196 209 218 220 223 238 233 244